Location: Brede
(50.9167°N, 0.6000°E)
Time: 08:00:49
(UTC+00:00)

Tiros 1 - Pass Details

Date: 30 November 2020
Orbit: 630 x 663 km, 48.4° (Epoch: 16 January)

Event Time Altitude Azimuth Distance (km) Brightness Sun altitude
Rises 18:58:59 0° 277° (W) 2,991 11.8 -28.1°
Reaches altitude 10° 19:01:24 10° 272° (W) 2,074 10.7 -28.4°
Enters shadow 19:05:11 43° 230° (SW) 918 8.1 -29.0°
